Location: Cella
(44.7333°N, 10.5667°E)
Time: 00:55:24
(UTC+00:00)

COSMOS 1867 COOLANT - Pass Details

Date: 20 September 2021
Orbit: 770 x 802 km, 65.0° (Epoch: 21 October)

Event Time Altitude Azimuth Distance (km) Brightness Sun altitude
Rises 22:17:05 0° 322° (NW) 3,320 ? -43.0°
Reaches altitude 10° 22:19:33 10° 319° (NW) 2,385 ? -43.1°
Enters shadow 22:20:03 13° 318° (NW) 2,195 ? -43.2°
